AirNav   Air Wisconsin Up To $57,000 Bonus
 
 1498 users online  

38N Smyrna Airport
Smyrna, Delaware, USA

GOING TO SMYRNA?


FAA INFORMATION EFFECTIVE 10 OCTOBER 2019

Location

FAA Identifier: 38N
Lat/Long: 39-18-13.2000N 075-35-01.7000W
39-18.220000N 075-35.028333W
39.3036667,-75.5838056
(estimated)
Elevation: 18 ft. / 5 m (estimated)
Variation: 11W (1985)
From city: 1 mile E of SMYRNA, DE
Time zone: UTC -4 (UTC -5 during Standard Time)
Zip code: 19977

Airport Operations

Airport use: Open to the public
Control tower: no
ARTCC: WASHINGTON CENTER
FSS: MILLVILLE FLIGHT SERVICE STATION
NOTAMs facility: MIV (NOTAM-D service available)
Attendance: IREG
Wind indicator: yes
Segmented circle: yes
Lights: ACTVT LIRL RWY 10/28 DUSK-2400 - CTAF.
Beacon: white-green (lighted land airport)

Airport Communications

CTAF/UNICOM: 122.8
WX AWOS-3 at 33N (5 nm S): 120.125 (302-735-9754)
WX AWOS-3 at EVY (15 nm NW): 132.325 (302-378-2063)

Nearby radio navigation aids

VOR radial/distance  VOR name  Freq  Var
ENOr333/5.3SMYRNA VORTAC111.4009W
DQOr187/22.5DUPONT VORTAC114.0010W
OODr223/23.8WOODSTOWN VORTAC112.8010W
VCNr254/31.8CEDAR LAKE VOR/DME115.2010W
ATRr339/34.3WATERLOO VOR/DME112.6009W
MXEr183/37.1MODENA VORTAC113.2009W
SIEr298/38.5SEA ISLE VORTAC114.8009W

 
NDB name  Hdg/Dist  Freq  Var  ID
RAINBOW263/21.936311WRNB .-. -. -...

Airport Services

Fuel available: 100LL MOGAS
Parking: hangars
Airframe service: NONE
Powerplant service: NONE
Bottled oxygen: NONE
Bulk oxygen: NONE

Runway Information

Runway 10/28

Dimensions: 2600 x 125 ft. / 792 x 38 m
Surface: turf, in good condition
ROLLING SURFACE.
Runway edge lights: low intensity
RUNWAY 10  RUNWAY 28
Latitude: 39-18.208833N39-18.230000N
Longitude: 075-35.303167W075-34.752500W
Traffic pattern: leftleft
Runway end identifier lights: yesyes
Obstructions: 55 ft. trees, 1020 ft. from runway, 18:1 slope to clear78 ft. trees, 1257 ft. from runway, 16:1 slope to clear

Airport Ownership and Management from official FAA records

Ownership: Privately-owned
Owner: BARBARA JONES
305 WOODLAND BEACH RD
SMYRNA, DE 19977
Phone 302-653-8314
Manager: ROBERT JONES
305 WOODLAND BEACH RD
SMYRNA, DE 19977
Phone 302-653-8314

Airport Operational Statistics

Aircraft based on the field: 10
Single engine airplanes: 8
Gliders airplanes: 2
    
Aircraft operations: avg 44/week *
87% local general aviation
13% transient general aviation
* for 12-month period ending 16 April 2018

Additional Remarks

MIGRATORY WATER FOWL ON & INVOF ARPT OCT-FEB.
FOR CD CTC WASHINGTON ARTCC AT 703-771-3587.

Instrument Procedures

There are no published instrument procedures at 38N.

Some nearby airports with instrument procedures:

33N - Delaware Airpark (5 nm S)
KDOV - Dover Air Force Base (12 nm SE)
KEVY - Summit Airport (15 nm NW)
58M - Claremont Airport (21 nm NW)
KILG - New Castle Airport (23 nm N)
 
Loc | Ops | Rwys | IFR | FBO | Links
Com | Nav | Svcs | Stats | Notes
Area around 38N (Smyrna Airport)
 
Road maps at: MapQuest Bing Google
 
Aerial photo
WARNING: Photo may not be current or correct
Aerial photo of 38N (Smyrna Airport)
Photo courtesy of FlyinPhilsPhotos.com
Taken in the Spring of 2010

Do you have a better or more recent aerial photo of Smyrna Airport that you would like to share? If so, please send us your photo.

 
Sectional chart

 
Airport distance calculator
Flying to Smyrna Airport? Find the distance to fly.

From to 38N

Sunrise and sunset
Times for 16-Oct-2019
 Local
(UTC-4)
 Zulu
(UTC)
Morning civil twilight06:4710:47
Sunrise07:1411:14
Sunset18:2222:22
Evening civil twilight18:4922:49

Current date and time
Zulu (UTC)  16-Oct-2019 14:59:16
Local (UTC-4)  16-Oct-2019 10:59:16
 
METAR
KDOV 
12nm SE 
161156Z 15005KT 10SM CLR 16/16 A2990 RMK AO2A SLP128 T01620157 10162 20135 57015 $
KILG 
22nm N 
161451Z 14009KT 10SM BKN043 BKN050 BKN120 18/16 A2979 RMK AO2 SLP089 T01780156 58034
KMIV 
24nm E 
161454Z AUTO 13007KT 10SM SCT043 BKN050 18/16 A2981 RMK AO2 SLP092 T01830161 58034
KAPG 
24nm NW 
161252Z 12003KT 7SM BKN008 OVC012 15/14 A2986 RMK SLP115
TAF
KDOV 
12nm SE 
160800Z 1608/1714 15009KT 9999 FEW020 SCT040 QNH2985INS BECMG 1613/1614 14012KT 9999 SCT030 BKN050 QNH2984INS BECMG 1614/1615 14015G20KT 3200 RA BR SCT010 BKN020 QNH2933INS TEMPO 1619/1622 16015G35KT 1600 +TSRA BKN010CB OVC020 BECMG 1622/1623 28020G35KT 9999 NSW OVC015 520004 QNH2936INS BECMG 1702/1703 30025G40KT 9999 SCT030 520004 QNH2944INS BECMG 1705/1706 28020G35KT 9999 BKN040 QNH2945INS TX21/1618Z TN09/1708Z
NOTAMs
Click for the latest NOTAMs
NOTAMs are issued by the DoD/FAA and will open in a separate window not controlled by AirNav.

 

 
 

FBO, Fuel Providers, and Aircraft Ground Support

  
 Business Name 
 
 Contact 
 
 Services / Description 
 
Fuel Prices
 
Comments
  
Smyrna Airport 302-653-8314
[email]
Aviation fuel, Aircraft parking (ramp or tiedown), Public telephone, Pilots lounge / snooze room, Restrooms

More info about Smyrna Airport
independent
100LL
AS $5.35 
 Updated 09-Sep-2019
 
   write
AS=Assisted/Self Service
Update Fuel Prices
 

Would you like to see your business listed on this page?

 If your business provides an interesting product or service to pilots, flight crews, aircraft, or users of the Smyrna Airport, you should consider listing it here.  To start the listing process, click on the button below
 
Add a business
 

Other Pages about Smyrna Airport

Update a link
 
Copyright © AirNav, LLC. All rights reserved. Privacy Policy  Contact